Location: Baix
(44.7118°N, 4.7648°E)
Time: 02:37:29
(UTC+00:00)

Meteor 1-21 Rocket - Pass Details

Date: 07 August 2020
Orbit: 833 x 908 km, 81.2° (Epoch: 27 September)

Event Time Altitude Azimuth Distance (km) Brightness Sun altitude
Rises 03:10:43 0° 347° (NNW) 3,409 7.7 -13.4°
Reaches altitude 10° 03:13:09 10° 346° (NNW) 2,463 7.0 -13.1°
Maximum altitude 03:18:42 76° 263° (W) 862 4.1 -12.3°
Drops below altitude 10° 03:24:11 10° 178° (S) 2,435 6.3 -11.5°
Sets 03:26:35 0° 176° (S) 3,367 7.0 -11.2°
